Torna al catalogo

SES 2

AttivoComunicazioniGEO
NORAD 37809·PAYLOAD·🇱🇺 Luxembourg

Lanciato Sep 21, 2011 da Guiana Space Centre

Loading…

TLE

AggiornatoSource: CelesTrak SupGP

Epoca: Sep 13, 2026, 23:44 UTC

1 37809C 11049A   26256.98958333 -.00000106  00000+0  00000+0 0  2563
2 37809   0.2805  87.5453 0002842  81.3839  93.2930  1.00272593    10

Traccia SES 2 in tempo reale con AllMySat

Download on the App Store